Location: Seattle
(47.6064°N, 122.3308°W)
Time: 23:55:23
(UTC-07:00)

RS-15 - Pass Details

Date: 01 April 2023
Orbit: 1885 x 2159 km, 64.8° (Epoch: 29 May)

Event Time Altitude Azimuth Distance (km) Brightness Sun altitude
Rises 00:18:57 0° 318° (NW) 5,656 11.3 -36.6°
Reaches altitude 10° 00:22:29 10° 321° (NW) 4,628 10.6 -36.7°
Maximum altitude 00:34:36 73° 47° (NE) 2,126 8.0 -37.2°
Enters shadow 00:37:05 60° 105° (ESE) 2,273 8.0 -37.3°
